START_TIME,STEP,MOV.,A46,t_acc.,A13,t_acc.,M47,t_acc.,A17,t_acc.,A28,t_acc.,M38,t_acc.
1979-03-02 00:00:14.960 ,3,0,,0,0.,4.8,0.,4.8,,0,0.,4.8,46.,4.8
1979-03-02 00:00:19.760 ,3,0,,0,0.,4.8,0.,4.8,,0,0.,4.8,52.,4.8
1979-03-02 00:00:24.560 ,3,0,,0,0.,4.8,3.,4.8,,0,0.,4.8,70.,4.8
1979-03-02 00:00:29.360 ,3,0,,0,0.,4.8,2.,4.8,,0,0.,4.8,43.,4.8
1979-03-02 00:00:34.160 ,3,0,,0,0.,4.8,1.,4.8,,0,0.,4.8,52.,4.8
1979-03-02 00:00:38.960 ,4,0,,0,0.,4.8,3.,4.8,,0,0.,4.8,63.,4.8
1979-03-02 00:00:43.760 ,4,0,,0,0.,4.8,0.,4.8,,0,0.,4.8,70.,4.8
1979-03-02 00:00:48.560 ,4,0,,0,0.,4.8,0.,4.8,,0,0.,4.8,72.,4.8
1979-03-02 00:00:53.360 ,4,0,,0,1.,4.8,0.,4.8,,0,0.,4.8,66.,4.8
1979-03-02 00:00:58.160 ,4,0,,0,1.,4.8,0.,4.8,,0,0.,4.8,58.,4.8
1979-03-02 00:01:02.960 ,5,0,,0,0.,4.8,0.,4.8,,0,0.,4.8,64.,4.8
1979-03-02 00:01:07.760 ,5,0,,0,0.,4.8,0.,4.8,,0,0.,4.8,57.,4.8
1979-03-02 00:01:12.560 ,5,0,,0,0.,4.8,0.,4.8,,0,0.,4.8,66.,4.8
1979-03-02 00:01:17.360 ,5,0,,0,0.,4.8,0.,4.8,,0,0.,4.8,70.,4.8
1979-03-02 00:01:22.160 ,5,0,,0,0.,4.8,1.,4.8,,0,0.,4.8,57.,4.8
1979-03-02 00:01:26.960 ,6,0,,0,0.,4.8,0.,4.8,,0,0.,4.8,66.,4.8
1979-03-02 00:01:31.760 ,6,0,,0,0.,4.8,1.,4.8,,0,0.,4.8,61.,4.8
1979-03-02 00:01:36.560 ,6,0,,0,0.,4.8,0.,4.8,,0,0.,4.8,35.,4.8
1979-03-02 00:01:41.360 ,6,0,,0,0.,4.8,0.,4.8,,0,1.,4.8,50.,4.8
1979-03-02 00:01:46.160 ,6,0,,0,0.,4.8,1.,4.8,,0,0.,4.8,40.,4.8
1979-03-02 00:01:50.960 ,7,0,,0,0.,4.8,0.,4.8,,0,1.,4.8,49.,4.8
1979-03-02 00:01:55.760 ,7,0,,0,0.,4.8,0.,4.8,,0,0.,4.8,18.,4.8
1979-03-02 00:02:00.560 ,7,0,,0,0.,4.8,0.,4.8,,0,0.,4.8,0.,4.8
1979-03-02 00:02:05.360 ,7,0,,0,0.,4.8,0.,4.8,,0,0.,4.8,0.,4.8
1979-03-02 00:02:10.160 ,7,0,,0,0.,4.8,0.,4.8,,0,0.,4.8,0.,4.8
1979-03-02 00:02:14.960 ,7,0,,0,0.,4.8,0.,4.8,,0,0.,4.8,0.,4.8
1979-03-02 00:02:19.760 ,7,0,,0,0.,4.8,0.,4.8,,0,0.,4.8,0.,4.8
1979-03-02 00:02:24.560 ,7,0,,0,0.,4.8,1.,4.8,,0,0.,4.8,0.,4.8
1979-03-02 00:02:29.360 ,7,0,,0,0.,4.8,1.,4.8,,0,0.,4.8,0.,4.8
1979-03-02 00:02:34.160 ,7,0,,0,0.,4.8,2.,4.8,,0,0.,4.8,0.,4.8
1979-03-02 00:02:38.960 ,6,0,,0,0.,4.8,1.,4.8,,0,0.,4.8,0.,4.8
1979-03-02 00:02:43.760 ,6,0,,0,0.,4.8,0.,4.8,,0,0.,4.8,9.,4.8
1979-03-02 00:02:48.560 ,6,0,,0,0.,4.8,1.,4.8,,0,0.,4.8,44.,4.8
1979-03-02 00:02:53.360 ,6,0,,0,0.,4.8,2.,4.8,,0,0.,4.8,42.,4.8
1979-03-02 00:02:58.160 ,6,0,,0,0.,4.8,0.,4.8,,0,0.,4.8,29.,4.8
1979-03-02 00:03:02.960 ,5,0,,0,1.,4.8,0.,4.8,,0,0.,4.8,36.,4.8
1979-03-02 00:03:07.760 ,5,0,,0,0.,4.8,1.,4.8,,0,0.,4.8,50.,4.8
1979-03-02 00:03:12.560 ,5,0,,0,0.,4.8,0.,4.8,,0,1.,4.8,55.,4.8
1979-03-02 00:03:17.360 ,5,0,,0,1.,4.8,0.,4.8,,0,0.,4.8,62.,4.8
1979-03-02 00:03:22.160 ,5,0,,0,0.,4.8,1.,4.8,,0,0.,4.8,43.,4.8
1979-03-02 00:03:26.960 ,4,0,,0,0.,4.8,0.,4.8,,0,0.,4.8,45.,4.8
1979-03-02 00:03:31.760 ,4,0,,0,0.,4.8,1.,4.8,,0,0.,4.8,70.,4.8
1979-03-02 00:03:36.560 ,4,0,,0,0.,4.8,2.,4.8,,0,0.,4.8,48.,4.8
1979-03-02 00:03:41.360 ,4,0,,0,0.,4.8,0.,4.8,,0,0.,4.8,62.,4.8
1979-03-02 00:03:46.160 ,4,0,,0,0.,4.8,0.,4.8,,0,0.,4.8,68.,4.8
1979-03-02 00:03:50.960 ,3,0,,0,0.,4.8,0.,4.8,,0,0.,4.8,56.,4.8
1979-03-02 00:03:55.760 ,3,0,,0,0.,4.8,0.,4.8,,0,0.,4.8,56.,4.8
1979-03-02 00:04:00.560 ,3,0,,0,0.,4.8,0.,4.8,,0,0.,4.8,45.,4.8
1979-03-02 00:04:05.360 ,3,0,,0,0.,4.8,1.,4.8,,0,0.,4.8,51.,4.8
1979-03-02 00:04:10.160 ,3,0,,0,1.,4.8,1.,4.8,,0,0.,4.8,54.,4.8
1979-03-02 00:04:14.960 ,2,0,,0,0.,4.8,1.,4.8,,0,0.,4.8,51.,4.8
1979-03-02 00:04:19.760 ,2,0,,0,0.,4.8,3.,4.8,,0,0.,4.8,37.,4.8
1979-03-02 00:04:24.560 ,2,0,,0,0.,4.8,0.,4.8,,0,0.,4.8,42.,4.8
1979-03-02 00:04:29.360 ,2,0,,0,0.,4.8,0.,4.8,,0,0.,4.8,43.,4.8
1979-03-02 00:04:34.160 ,2,0,,0,0.,4.8,1.,4.8,,0,0.,4.8,59.,4.8
1979-03-02 00:04:38.960 ,1,0,,0,0.,4.8,1.,4.8,,0,0.,4.8,64.,4.8
1979-03-02 00:04:43.760 ,1,0,,0,0.,4.8,0.,4.8,,0,0.,4.8,46.,4.8
1979-03-02 00:04:48.560 ,1,0,,0,0.,4.8,0.,4.8,,0,0.,4.8,42.,4.8
1979-03-02 00:04:53.360 ,1,0,,0,0.,4.8,0.,4.8,,0,0.,4.8,42.,4.8
1979-03-02 00:04:58.160 ,1,0,,0,0.,4.8,1.,4.8,,0,0.,4.8,48.,4.8
1979-03-02 00:05:02.960 ,0,0,,0,0.,4.8,0.,4.8,,0,0.,4.8,46.,4.8
1979-03-02 00:05:07.760 ,0,0,,0,0.,4.8,1.,4.8,,0,0.,4.8,53.,4.8
1979-03-02 00:05:12.560 ,0,0,,0,0.,4.8,1.,4.8,,0,0.,4.8,36.,4.8
1979-03-02 00:05:17.360 ,0,0,,0,0.,4.8,0.,4.8,,0,0.,4.8,38.,4.8
1979-03-02 00:05:22.160 ,0,0,,0,0.,4.8,1.,4.8,,0,0.,4.8,36.,4.8
1979-03-02 00:05:26.960 ,0,0,,0,0.,4.8,0.,4.8,,0,0.,4.8,49.,4.8
1979-03-02 00:05:31.760 ,0,0,,0,0.,4.8,0.,4.8,,0,0.,4.8,26.,4.8
1979-03-02 00:05:36.560 ,0,0,,0,0.,4.8,0.,4.8,,0,0.,4.8,42.,4.8
1979-03-02 00:05:41.360 ,0,0,,0,0.,4.8,1.,4.8,,0,0.,4.8,41.,4.8
1979-03-02 00:05:46.160 ,0,0,,0,0.,4.8,0.,4.8,,0,0.,4.8,29.,4.8
1979-03-02 00:05:50.960 ,1,0,,0,0.,4.8,1.,4.8,,0,0.,4.8,39.,4.8
1979-03-02 00:05:55.760 ,1,0,,0,0.,4.8,0.,4.8,,0,0.,4.8,32.,4.8
1979-03-02 00:06:00.560 ,1,0,,0,0.,4.8,1.,4.8,,0,0.,4.8,38.,4.8
1979-03-02 00:06:05.360 ,1,0,,0,0.,4.8,1.,4.8,,0,0.,4.8,54.,4.8
1979-03-02 00:06:10.160 ,1,0,,0,0.,4.8,0.,4.8,,0,0.,4.8,58.,4.8
1979-03-02 00:06:14.960 ,2,0,,0,0.,4.8,0.,4.8,,0,0.,4.8,50.,4.8
1979-03-02 00:06:19.760 ,2,0,,0,0.,4.8,0.,4.8,,0,0.,4.8,49.,4.8
1979-03-02 00:06:24.560 ,2,0,,0,0.,4.8,0.,4.8,,0,0.,4.8,47.,4.8
1979-03-02 00:06:29.360 ,2,0,,0,1.,4.8,0.,4.8,,0,0.,4.8,55.,4.8
1979-03-02 00:06:34.160 ,2,0,,0,0.,4.8,0.,4.8,,0,0.,4.8,39.,4.8
1979-03-02 00:06:38.960 ,3,0,,0,0.,4.8,2.,4.8,,0,1.,4.8,44.,4.8
1979-03-02 00:06:43.760 ,3,0,,0,0.,4.8,0.,4.8,,0,0.,4.8,45.,4.8
1979-03-02 00:06:48.560 ,3,0,,0,0.,4.8,0.,4.8,,0,0.,4.8,38.,4.8
1979-03-02 00:06:53.360 ,3,0,,0,0.,4.8,1.,4.8,,0,0.,4.8,50.,4.8
1979-03-02 00:06:58.160 ,3,0,,0,0.,4.8,0.,4.8,,0,0.,4.8,40.,4.8
1979-03-02 00:07:02.960 ,4,0,,0,0.,4.8,1.,4.8,,0,0.,4.8,44.,4.8
1979-03-02 00:07:07.760 ,4,0,,0,0.,4.8,1.,4.8,,0,0.,4.8,60.,4.8
1979-03-02 00:07:12.560 ,4,0,,0,0.,4.8,0.,4.8,,0,0.,4.8,84.,4.8
1979-03-02 00:07:17.360 ,4,0,,0,0.,4.8,0.,4.8,,0,0.,4.8,68.,4.8
1979-03-02 00:07:22.160 ,4,0,,0,0.,4.8,0.,4.8,,0,0.,4.8,74.,4.8
1979-03-02 00:07:26.960 ,5,0,,0,0.,4.8,0.,4.8,,0,0.,4.8,94.,4.8
1979-03-02 00:07:31.760 ,5,0,,0,0.,4.8,0.,4.8,,0,0.,4.8,64.,4.8
1979-03-02 00:07:36.560 ,5,0,,0,0.,4.8,0.,4.8,,0,0.,4.8,44.,4.8
1979-03-02 00:07:41.360 ,5,0,,0,0.,4.8,2.,4.8,,0,0.,4.8,44.,4.8
1979-03-02 00:07:46.160 ,5,0,,0,0.,4.8,0.,4.8,,0,0.,4.8,50.,4.8
1979-03-02 00:07:50.960 ,6,0,,0,0.,4.8,0.,4.8,,0,0.,4.8,41.,4.8
1979-03-02 00:07:55.760 ,6,0,,0,1.,4.8,0.,4.8,,0,0.,4.8,68.,4.8
1979-03-02 00:08:00.560 ,6,0,,0,0.,4.8,2.,4.8,,0,0.,4.8,42.,4.8
1979-03-02 00:08:05.360 ,6,0,,0,0.,4.8,0.,4.8,,0,0.,4.8,55.,4.8
1979-03-02 00:08:10.160 ,6,0,,0,0.,4.8,2.,4.8,,0,0.,4.8,56.,4.8
1979-03-02 00:08:14.960 ,7,0,,0,0.,4.8,0.,4.8,,0,0.,4.8,47.,4.8
1979-03-02 00:08:19.760 ,7,0,,0,0.,4.8,0.,4.8,,0,0.,4.8,33.,4.8
1979-03-02 00:08:24.560 ,7,0,,0,0.,4.8,0.,4.8,,0,0.,4.8,0.,4.8
1979-03-02 00:08:29.360 ,7,0,,0,0.,4.8,0.,4.8,,0,0.,4.8,0.,4.8
1979-03-02 00:08:34.160 ,7,0,,0,0.,4.8,0.,4.8,,0,0.,4.8,0.,4.8
1979-03-02 00:08:38.960 ,7,0,,0,0.,4.8,1.,4.8,,0,0.,4.8,0.,4.8
1979-03-02 00:08:43.760 ,7,0,,0,0.,4.8,2.,4.8,,0,0.,4.8,0.,4.8
1979-03-02 00:08:48.560 ,7,0,,0,0.,4.8,1.,4.8,,0,0.,4.8,0.,4.8
1979-03-02 00:08:53.360 ,7,0,,0,0.,4.8,0.,4.8,,0,0.,4.8,0.,4.8
1979-03-02 00:08:58.160 ,7,0,,0,0.,4.8,1.,4.8,,0,0.,4.8,0.,4.8
1979-03-02 00:09:02.960 ,6,0,,0,0.,4.8,0.,4.8,,0,0.,4.8,0.,4.8
1979-03-02 00:09:07.760 ,6,0,,0,0.,4.8,0.,4.8,,0,0.,4.8,16.,4.8
1979-03-02 00:09:12.560 ,6,0,,0,0.,4.8,1.,4.8,,0,0.,4.8,49.,4.8
1979-03-02 00:09:17.360 ,6,0,,0,0.,4.8,1.,4.8,,0,0.,4.8,48.,4.8
1979-03-02 00:09:22.160 ,6,0,,0,0.,4.8,1.,4.8,,0,0.,4.8,51.,4.8
1979-03-02 00:09:26.960 ,5,0,,0,0.,4.8,0.,4.8,,0,0.,4.8,45.,4.8
1979-03-02 00:09:31.760 ,5,0,,0,0.,4.8,1.,4.8,,0,0.,4.8,45.,4.8
1979-03-02 00:09:36.560 ,5,0,,0,0.,4.8,0.,4.8,,0,0.,4.8,72.,4.8
1979-03-02 00:09:41.360 ,5,0,,0,0.,4.8,0.,4.8,,0,0.,4.8,57.,4.8
1979-03-02 00:09:46.160 ,5,0,,0,0.,4.8,0.,4.8,,0,0.,4.8,66.,4.8
1979-03-02 00:09:50.960 ,4,0,,0,1.,4.8,1.,4.8,,0,0.,4.8,72.,4.8
1979-03-02 00:09:55.760 ,4,0,,0,0.,4.8,0.,4.8,,0,0.,4.8,76.,4.8
1979-03-02 00:10:00.560 ,4,0,,0,0.,4.8,0.,4.8,,0,0.,4.8,80.,4.8
1979-03-02 00:10:05.360 ,4,0,,0,0.,4.8,0.,4.8,,0,0.,4.8,76.,4.8
1979-03-02 00:10:10.160 ,4,0,,0,0.,4.8,0.,4.8,,0,0.,4.8,96.,4.8
1979-03-02 00:10:14.960 ,3,0,,0,0.,4.8,0.,4.8,,0,0.,4.8,84.,4.8
1979-03-02 00:10:19.760 ,3,0,,0,0.,4.8,2.,4.8,,0,0.,4.8,82.,4.8
1979-03-02 00:10:24.560 ,3,0,,0,0.,4.8,0.,4.8,,0,0.,4.8,48.,4.8
1979-03-02 00:10:29.360 ,3,0,,0,0.,4.8,2.,4.8,,0,0.,4.8,39.,4.8
1979-03-02 00:10:34.160 ,3,0,,0,0.,4.8,0.,4.8,,0,0.,4.8,45.,4.8
1979-03-02 00:10:38.960 ,2,0,,0,0.,4.8,2.,4.8,,0,0.,4.8,40.,4.8
1979-03-02 00:10:43.760 ,2,0,,0,0.,4.8,0.,4.8,,0,0.,4.8,44.,4.8
1979-03-02 00:10:48.560 ,2,0,,0,0.,4.8,0.,4.8,,0,0.,4.8,49.,4.8
1979-03-02 00:10:53.360 ,2,0,,0,0.,4.8,0.,4.8,,0,0.,4.8,40.,4.8
1979-03-02 00:10:58.160 ,2,0,,0,0.,4.8,0.,4.8,,0,1.,4.8,43.,4.8
1979-03-02 00:11:02.960 ,1,0,,0,0.,4.8,1.,4.8,,0,0.,4.8,45.,4.8
1979-03-02 00:11:07.760 ,1,0,,0,0.,4.8,1.,4.8,,0,0.,4.8,32.,4.8
1979-03-02 00:11:12.560 ,1,0,,0,0.,4.8,0.,4.8,,0,0.,4.8,43.,4.8
1979-03-02 00:11:17.360 ,1,0,,0,0.,4.8,0.,4.8,,0,0.,4.8,39.,4.8
1979-03-02 00:11:22.160 ,1,0,,0,0.,4.8,0.,4.8,,0,0.,4.8,26.,4.8
1979-03-02 00:11:26.960 ,0,0,,0,0.,4.8,0.,4.8,,0,0.,4.8,22.,4.8
1979-03-02 00:11:31.760 ,0,0,,0,0.,4.8,0.,4.8,,0,1.,4.8,36.,4.8
1979-03-02 00:11:36.560 ,0,0,,0,0.,4.8,0.,4.8,,0,0.,4.8,38.,4.8
1979-03-02 00:11:41.360 ,0,0,,0,0.,4.8,0.,4.8,,0,0.,4.8,55.,4.8
1979-03-02 00:11:46.160 ,0,0,,0,0.,4.8,1.,4.8,,0,0.,4.8,43.,4.8
1979-03-02 00:11:50.960 ,0,0,,0,1.,4.8,0.,4.8,,0,0.,4.8,47.,4.8
1979-03-02 00:11:55.760 ,0,0,,0,0.,4.8,0.,4.8,,0,0.,4.8,53.,4.8
1979-03-02 00:12:00.560 ,0,0,,0,0.,4.8,0.,4.8,,0,0.,4.8,43.,4.8
1979-03-02 00:12:05.360 ,0,0,,0,1.,4.8,1.,4.8,,0,0.,4.8,38.,4.8
1979-03-02 00:12:10.160 ,0,0,,0,0.,4.8,0.,4.8,,0,0.,4.8,43.,4.8
1979-03-02 00:12:14.960 ,1,0,,0,0.,4.8,0.,4.8,,0,0.,4.8,33.,4.8
1979-03-02 00:12:19.760 ,1,0,,0,0.,4.8,1.,4.8,,0,0.,4.8,27.,4.8
1979-03-02 00:12:24.560 ,1,0,,0,0.,4.8,0.,4.8,,0,0.,4.8,41.,4.8
1979-03-02 00:12:29.360 ,1,0,,0,0.,4.8,0.,4.8,,0,0.,4.8,38.,4.8
1979-03-02 00:12:34.160 ,1,0,,0,0.,4.8,0.,4.8,,0,0.,4.8,31.,4.8
1979-03-02 00:12:38.960 ,2,0,,0,0.,4.8,0.,4.8,,0,0.,4.8,35.,4.8
1979-03-02 00:12:43.760 ,2,0,,0,1.,4.8,0.,4.8,,0,0.,4.8,49.,4.8
1979-03-02 00:12:48.560 ,2,0,,0,0.,4.8,0.,4.8,,0,0.,4.8,33.,4.8
1979-03-02 00:12:53.360 ,2,0,,0,1.,4.8,0.,4.8,,0,0.,4.8,26.,4.8
1979-03-02 00:12:58.160 ,2,0,,0,0.,4.8,0.,4.8,,0,0.,4.8,37.,4.8
1979-03-02 00:13:02.960 ,3,0,,0,0.,4.8,0.,4.8,,0,0.,4.8,42.,4.8
1979-03-02 00:13:07.760 ,3,0,,0,0.,4.8,0.,4.8,,0,0.,4.8,38.,4.8
1979-03-02 00:13:12.560 ,3,0,,0,0.,4.8,2.,4.8,,0,0.,4.8,51.,4.8
1979-03-02 00:13:17.360 ,3,0,,0,0.,4.8,3.,4.8,,0,0.,4.8,56.,4.8
1979-03-02 00:13:22.160 ,3,0,,0,0.,4.8,2.,4.8,,0,0.,4.8,56.,4.8
1979-03-02 00:13:26.960 ,4,0,,0,0.,4.8,3.,4.8,,0,0.,4.8,60.,4.8
1979-03-02 00:13:31.760 ,4,0,,0,0.,4.8,1.,4.8,,0,0.,4.8,64.,4.8
1979-03-02 00:13:36.560 ,4,0,,0,0.,4.8,0.,4.8,,0,0.,4.8,74.,4.8
1979-03-02 00:13:41.360 ,4,0,,0,0.,4.8,0.,4.8,,0,0.,4.8,68.,4.8
1979-03-02 00:13:46.160 ,4,0,,0,0.,4.8,0.,4.8,,0,0.,4.8,66.,4.8
1979-03-02 00:13:50.960 ,5,0,,0,0.,4.8,0.,4.8,,0,0.,4.8,78.,4.8
1979-03-02 00:13:55.760 ,5,0,,0,1.,4.8,0.,4.8,,0,0.,4.8,62.,4.8
1979-03-02 00:14:00.560 ,5,0,,0,0.,4.8,0.,4.8,,0,0.,4.8,41.,4.8
1979-03-02 00:14:05.360 ,5,0,,0,0.,4.8,0.,4.8,,0,0.,4.8,50.,4.8
1979-03-02 00:14:10.160 ,5,0,,0,0.,4.8,0.,4.8,,0,0.,4.8,47.,4.8
1979-03-02 00:14:14.960 ,6,0,,0,0.,4.8,1.,4.8,,0,0.,4.8,55.,4.8
1979-03-02 00:14:19.760 ,6,0,,0,0.,4.8,1.,4.8,,0,0.,4.8,39.,4.8
1979-03-02 00:14:24.560 ,6,0,,0,0.,4.8,0.,4.8,,0,0.,4.8,59.,4.8
1979-03-02 00:14:29.360 ,6,0,,0,0.,4.8,0.,4.8,,0,0.,4.8,54.,4.8
1979-03-02 00:14:34.160 ,6,0,,0,0.,4.8,1.,4.8,,0,0.,4.8,47.,4.8
1979-03-02 00:14:38.960 ,7,0,,0,0.,4.8,1.,4.8,,0,0.,4.8,51.,4.8
1979-03-02 00:14:43.760 ,7,0,,0,0.,4.8,0.,4.8,,0,0.,4.8,38.,4.8
1979-03-02 00:14:48.560 ,7,0,,0,0.,4.8,0.,4.8,,0,0.,4.8,0.,4.8
1979-03-02 00:14:53.360 ,7,0,,0,0.,4.8,0.,4.8,,0,0.,4.8,0.,4.8
1979-03-02 00:14:58.160 ,7,0,,0,0.,4.8,0.,4.8,,0,0.,4.8,0.,4.8
1979-03-02 00:15:02.960 ,7,0,,0,0.,4.8,1.,4.8,,0,0.,4.8,0.,4.8
1979-03-02 00:15:07.760 ,7,0,,0,0.,4.8,0.,4.8,,0,0.,4.8,0.,4.8
1979-03-02 00:15:12.560 ,7,0,,0,0.,4.8,0.,4.8,,0,0.,4.8,0.,4.8
1979-03-02 00:15:17.360 ,7,0,,0,0.,4.8,0.,4.8,,0,0.,4.8,0.,4.8
1979-03-02 00:15:22.160 ,7,0,,0,1.,4.8,0.,4.8,,0,0.,4.8,0.,4.8
1979-03-02 00:15:26.960 ,6,0,,0,0.,4.8,0.,4.8,,0,0.,4.8,0.,4.8
1979-03-02 00:15:31.760 ,6,0,,0,0.,4.8,0.,4.8,,0,0.,4.8,16.,4.8
1979-03-02 00:15:36.560 ,6,0,,0,0.,4.8,1.,4.8,,0,0.,4.8,60.,4.8
1979-03-02 00:15:41.360 ,6,0,,0,0.,4.8,0.,4.8,,0,0.,4.8,55.,4.8
1979-03-02 00:15:46.160 ,6,0,,0,0.,4.8,0.,4.8,,0,0.,4.8,61.,4.8
1979-03-02 00:15:50.960 ,5,0,,0,0.,4.8,0.,4.8,,0,0.,4.8,59.,4.8
1979-03-02 00:15:55.760 ,5,0,,0,1.,4.8,1.,4.8,,0,0.,4.8,60.,4.8
1979-03-02 00:16:00.560 ,5,0,,0,0.,4.8,0.,4.8,,0,0.,4.8,56.,4.8
1979-03-02 00:16:05.360 ,5,0,,0,0.,4.8,1.,4.8,,0,0.,4.8,51.,4.8
1979-03-02 00:16:10.160 ,5,0,,0,0.,4.8,0.,4.8,,0,0.,4.8,68.,4.8
1979-03-02 00:16:14.960 ,4,0,,0,0.,4.8,0.,4.8,,0,0.,4.8,54.,4.8
1979-03-02 00:16:19.760 ,4,0,,0,0.,4.8,0.,4.8,,0,0.,4.8,57.,4.8
1979-03-02 00:16:24.560 ,4,0,,0,0.,4.8,0.,4.8,,0,0.,4.8,63.,4.8
1979-03-02 00:16:29.360 ,4,0,,0,0.,4.8,0.,4.8,,0,0.,4.8,84.,4.8
1979-03-02 00:16:34.160 ,4,0,,0,0.,4.8,0.,4.8,,0,0.,4.8,72.,4.8
1979-03-02 00:16:38.960 ,3,0,,0,0.,4.8,1.,4.8,,0,0.,4.8,74.,4.8
1979-03-02 00:16:43.760 ,3,0,,0,0.,4.8,0.,4.8,,0,0.,4.8,56.,4.8
1979-03-02 00:16:48.560 ,3,0,,0,0.,4.8,0.,4.8,,0,0.,4.8,53.,4.8
1979-03-02 00:16:53.360 ,3,0,,0,0.,4.8,2.,4.8,,0,0.,4.8,48.,4.8
1979-03-02 00:16:58.160 ,3,0,,0,0.,4.8,0.,4.8,,0,0.,4.8,53.,4.8
1979-03-02 00:17:02.960 ,2,0,,0,0.,4.8,1.,4.8,,0,0.,4.8,38.,4.8
1979-03-02 00:17:07.760 ,2,0,,0,0.,4.8,2.,4.8,,0,0.,4.8,33.,4.8
1979-03-02 00:17:12.560 ,2,0,,0,0.,4.8,0.,4.8,,0,0.,4.8,28.,4.8
1979-03-02 00:17:17.360 ,2,0,,0,0.,4.8,1.,4.8,,0,0.,4.8,35.,4.8
1979-03-02 00:17:22.160 ,2,0,,0,0.,4.8,0.,4.8,,0,0.,4.8,35.,4.8
1979-03-02 00:17:26.960 ,1,0,,0,0.,4.8,0.,4.8,,0,0.,4.8,32.,4.8
1979-03-02 00:17:31.760 ,1,0,,0,0.,4.8,0.,4.8,,0,0.,4.8,20.,4.8
1979-03-02 00:17:36.560 ,1,0,,0,0.,4.8,0.,4.8,,0,0.,4.8,17.,4.8
1979-03-02 00:17:41.360 ,1,0,,0,0.,4.8,1.,4.8,,0,0.,4.8,29.,4.8
1979-03-02 00:17:46.160 ,1,0,,0,0.,4.8,0.,4.8,,0,0.,4.8,22.,4.8
1979-03-02 00:17:50.960 ,0,0,,0,1.,4.8,0.,4.8,,0,0.,4.8,16.,4.8
1979-03-02 00:17:55.760 ,0,0,,0,0.,4.8,1.,4.8,,0,0.,4.8,18.,4.8
1979-03-02 00:18:00.560 ,0,0,,0,0.,4.8,2.,4.8,,0,0.,4.8,31.,4.8
1979-03-02 00:18:05.360 ,0,0,,0,0.,4.8,0.,4.8,,0,0.,4.8,32.,4.8
1979-03-02 00:18:10.160 ,0,0,,0,0.,4.8,1.,4.8,,0,0.,4.8,36.,4.8
1979-03-02 00:18:14.960 ,0,0,,0,0.,4.8,0.,4.8,,0,0.,4.8,31.,4.8
1979-03-02 00:18:19.760 ,0,0,,0,0.,4.8,0.,4.8,,0,0.,4.8,29.,4.8
1979-03-02 00:18:24.560 ,0,0,,0,0.,4.8,0.,4.8,,0,0.,4.8,32.,4.8
1979-03-02 00:18:29.360 ,0,0,,0,0.,4.8,0.,4.8,,0,0.,4.8,40.,4.8
1979-03-02 00:18:34.160 ,0,0,,0,0.,4.8,0.,4.8,,0,0.,4.8,33.,4.8
1979-03-02 00:18:38.960 ,1,0,,0,0.,4.8,0.,4.8,,0,0.,4.8,29.,4.8
1979-03-02 00:18:43.760 ,1,0,,0,0.,4.8,0.,4.8,,0,0.,4.8,29.,4.8
1979-03-02 00:18:48.560 ,1,0,,0,0.,4.8,0.,4.8,,0,0.,4.8,17.,4.8
1979-03-02 00:18:53.360 ,1,0,,0,0.,4.8,1.,4.8,,0,0.,4.8,19.,4.8
1979-03-02 00:18:58.160 ,1,0,,0,0.,4.8,0.,4.8,,0,0.,4.8,27.,4.8
1979-03-02 00:19:02.960 ,2,0,,0,0.,4.8,0.,4.8,,0,0.,4.8,16.,4.8
1979-03-02 00:19:07.760 ,2,0,,0,0.,4.8,0.,4.8,,0,0.,4.8,27.,4.8
1979-03-02 00:19:12.560 ,2,0,,0,0.,4.8,0.,4.8,,0,0.,4.8,31.,4.8
1979-03-02 00:19:17.360 ,2,0,,0,0.,4.8,0.,4.8,,0,0.,4.8,17.,4.8
1979-03-02 00:19:22.160 ,2,0,,0,0.,4.8,0.,4.8,,0,0.,4.8,21.,4.8
1979-03-02 00:19:26.960 ,3,0,,0,0.,4.8,0.,4.8,,0,1.,4.8,19.,4.8
1979-03-02 00:19:31.760 ,3,0,,0,0.,4.8,0.,4.8,,0,0.,4.8,37.,4.8
1979-03-02 00:19:36.560 ,3,0,,0,0.,4.8,1.,4.8,,0,0.,4.8,44.,4.8
1979-03-02 00:19:41.360 ,3,0,,0,0.,4.8,1.,4.8,,0,0.,4.8,46.,4.8
1979-03-02 00:19:46.160 ,3,0,,0,0.,4.8,3.,4.8,,0,0.,4.8,52.,4.8
1979-03-02 00:19:50.960 ,4,0,,0,0.,4.8,0.,4.8,,0,0.,4.8,36.,4.8
1979-03-02 00:19:55.760 ,4,0,,0,0.,4.8,1.,4.8,,0,0.,4.8,55.,4.8
1979-03-02 00:20:00.560 ,4,0,,0,0.,4.8,0.,4.8,,0,0.,4.8,72.,4.8
1979-03-02 00:20:05.360 ,4,0,,0,0.,4.8,0.,4.8,,0,0.,4.8,84.,4.8
1979-03-02 00:20:10.160 ,4,0,,0,0.,4.8,1.,4.8,,0,0.,4.8,59.,4.8
1979-03-02 00:20:14.960 ,5,0,,0,0.,4.8,0.,4.8,,0,0.,4.8,66.,4.8
1979-03-02 00:20:19.760 ,5,0,,0,0.,4.8,0.,4.8,,0,0.,4.8,62.,4.8
1979-03-02 00:20:24.560 ,5,0,,0,0.,4.8,2.,4.8,,0,0.,4.8,70.,4.8
1979-03-02 00:20:29.360 ,5,0,,0,0.,4.8,1.,4.8,,0,0.,4.8,68.,4.8
1979-03-02 00:20:34.160 ,5,0,,0,0.,4.8,0.,4.8,,0,0.,4.8,76.,4.8
1979-03-02 00:20:38.960 ,6,0,,0,0.,4.8,0.,4.8,,0,0.,4.8,72.,4.8
1979-03-02 00:20:43.760 ,6,0,,0,0.,4.8,1.,4.8,,0,0.,4.8,55.,4.8
1979-03-02 00:20:48.560 ,6,0,,0,0.,4.8,0.,4.8,,0,0.,4.8,50.,4.8
1979-03-02 00:20:53.360 ,6,0,,0,0.,4.8,0.,4.8,,0,0.,4.8,72.,4.8
1979-03-02 00:20:58.160 ,6,0,,0,0.,4.8,0.,4.8,,0,0.,4.8,68.,4.8
1979-03-02 00:21:02.960 ,7,0,,0,0.,4.8,3.,4.8,,0,0.,4.8,80.,4.8
1979-03-02 00:21:07.760 ,7,0,,0,0.,4.8,0.,4.8,,0,0.,4.8,63.,4.8
1979-03-02 00:21:12.560 ,7,0,,0,0.,4.8,0.,4.8,,0,0.,4.8,0.,4.8
1979-03-02 00:21:17.360 ,7,0,,0,0.,4.8,0.,4.8,,0,0.,4.8,0.,4.8
1979-03-02 00:21:22.160 ,7,0,,0,0.,4.8,0.,4.8,,0,0.,4.8,0.,4.8
1979-03-02 00:21:26.960 ,0,0,,0,,0,,0,,0,,0,,0
1979-03-02 00:21:31.760 ,0,0,,0,,0,,0,,0,,0,,0
1979-03-02 00:21:36.560 ,0,0,,0,,0,,0,,0,,0,,0
1979-03-02 00:21:41.360 ,0,0,,0,,0,,0,,0,,0,,0
1979-03-02 00:21:46.160 ,0,0,,0,,0,,0,,0,,0,,0
1979-03-02 00:21:50.960 ,0,0,,0,,0,,0,,0,,0,,0
1979-03-02 00:21:55.760 ,0,0,,0,,0,,0,,0,,0,,0
1979-03-02 00:22:00.560 ,0,0,,0,,0,,0,,0,,0,,0
1979-03-02 00:22:05.360 ,0,0,,0,,0,,0,,0,,0,,0
1979-03-02 00:22:10.160 ,0,0,,0,,0,,0,,0,,0,,0
1979-03-02 00:24:49.760 ,0,0,,0,,0,,0,,0,,0,,0
1979-03-02 00:24:54.560 ,0,0,,0,,0,,0,,0,,0,,0
1979-03-02 00:24:59.360 ,0,0,,0,0.,4.8,1.,4.8,,0,0.,4.8,31.,4.8
1979-03-02 00:25:04.160 ,0,0,,0,0.,4.8,1.,4.8,,0,0.,4.8,22.,4.8
1979-03-02 00:25:08.960 ,0,0,,0,0.,4.8,0.,4.8,,0,0.,4.8,29.,4.8
1979-03-02 00:25:02.960 ,1,0,,0,0.,4.8,0.,4.8,,0,0.,4.8,24.,4.8
1979-03-02 00:25:07.760 ,1,0,,0,0.,4.8,1.,4.8,,0,0.,4.8,25.,4.8
1979-03-02 00:25:12.560 ,1,0,,0,0.,4.8,0.,4.8,,0,0.,4.8,26.,4.8
1979-03-02 00:25:17.360 ,1,0,,0,0.,4.8,0.,4.8,,0,0.,4.8,15.,4.8
1979-03-02 00:25:22.160 ,1,0,,0,0.,4.8,0.,4.8,,0,0.,4.8,34.,4.8
1979-03-02 00:25:26.960 ,2,0,,0,0.,4.8,1.,4.8,,0,0.,4.8,20.,4.8
1979-03-02 00:25:31.760 ,2,0,,0,0.,4.8,0.,4.8,,0,0.,4.8,27.,4.8
1979-03-02 00:25:36.560 ,2,0,,0,0.,4.8,0.,4.8,,0,0.,4.8,25.,4.8
1979-03-02 00:25:41.360 ,2,0,,0,0.,4.8,0.,4.8,,0,0.,4.8,31.,4.8
1979-03-02 00:25:46.160 ,2,0,,0,0.,4.8,0.,4.8,,0,0.,4.8,12.,4.8
1979-03-02 00:25:50.960 ,3,0,,0,0.,4.8,0.,4.8,,0,0.,4.8,21.,4.8
1979-03-02 00:25:55.760 ,3,0,,0,0.,4.8,4.,4.8,,0,0.,4.8,19.,4.8
1979-03-02 00:26:00.560 ,3,0,,0,0.,4.8,0.,4.8,,0,0.,4.8,21.,4.8
1979-03-02 00:26:05.360 ,3,0,,0,0.,4.8,0.,4.8,,0,0.,4.8,20.,4.8
1979-03-02 00:26:10.160 ,3,0,,0,0.,4.8,0.,4.8,,0,0.,4.8,27.,4.8
1979-03-02 00:26:14.960 ,4,0,,0,0.,4.8,0.,4.8,,0,0.,4.8,39.,4.8
1979-03-02 00:26:19.760 ,4,0,,0,0.,4.8,1.,4.8,,0,0.,4.8,42.,4.8
1979-03-02 00:26:24.560 ,4,0,,0,0.,4.8,0.,4.8,,0,0.,4.8,48.,4.8
1979-03-02 00:26:29.360 ,4,0,,0,0.,4.8,0.,4.8,,0,0.,4.8,54.,4.8
1979-03-02 00:26:34.160 ,4,0,,0,0.,4.8,1.,4.8,,0,0.,4.8,49.,4.8
1979-03-02 00:26:38.960 ,5,0,,0,0.,4.8,0.,4.8,,0,0.,4.8,38.,4.8
1979-03-02 00:26:43.760 ,5,0,,0,0.,4.8,0.,4.8,,0,0.,4.8,66.,4.8
1979-03-02 00:26:48.560 ,5,0,,0,0.,4.8,0.,4.8,,0,0.,4.8,61.,4.8
1979-03-02 00:26:53.360 ,5,0,,0,0.,4.8,0.,4.8,,0,0.,4.8,76.,4.8
1979-03-02 00:26:58.160 ,5,0,,0,0.,4.8,1.,4.8,,0,0.,4.8,68.,4.8
1979-03-02 00:27:02.960 ,6,0,,0,0.,4.8,0.,4.8,,0,0.,4.8,60.,4.8
1979-03-02 00:27:07.760 ,6,0,,0,0.,4.8,1.,4.8,,0,0.,4.8,58.,4.8
1979-03-02 00:27:12.560 ,6,0,,0,0.,4.8,0.,4.8,,0,0.,4.8,50.,4.8
1979-03-02 00:27:17.360 ,6,0,,0,0.,4.8,0.,4.8,,0,0.,4.8,55.,4.8
1979-03-02 00:27:22.160 ,6,0,,0,0.,4.8,0.,4.8,,0,0.,4.8,51.,4.8
1979-03-02 00:27:26.960 ,7,0,,0,0.,4.8,0.,4.8,,0,0.,4.8,57.,4.8
1979-03-02 00:27:31.760 ,7,0,,0,0.,4.8,0.,4.8,,0,0.,4.8,40.,4.8
1979-03-02 00:27:36.560 ,7,0,,0,0.,4.8,1.,4.8,,0,0.,4.8,0.,4.8
1979-03-02 00:27:41.360 ,7,0,,0,0.,4.8,0.,4.8,,0,0.,4.8,0.,4.8
1979-03-02 00:27:46.160 ,7,0,,0,0.,4.8,0.,4.8,,0,0.,4.8,0.,4.8
1979-03-02 00:27:50.960 ,7,0,,0,0.,4.8,0.,4.8,,0,0.,4.8,0.,4.8
1979-03-02 00:27:55.760 ,7,0,,0,0.,4.8,0.,4.8,,0,0.,4.8,0.,4.8
1979-03-02 00:28:00.560 ,7,0,,0,0.,4.8,0.,4.8,,0,0.,4.8,0.,4.8
1979-03-02 00:28:05.360 ,7,0,,0,0.,4.8,0.,4.8,,0,0.,4.8,0.,4.8
1979-03-02 00:28:10.160 ,7,0,,0,0.,4.8,1.,4.8,,0,0.,4.8,0.,4.8
1979-03-02 00:28:14.960 ,6,0,,0,0.,4.8,0.,4.8,,0,0.,4.8,0.,4.8
1979-03-02 00:28:19.760 ,6,0,,0,0.,4.8,0.,4.8,,0,0.,4.8,17.,4.8
1979-03-02 00:28:24.560 ,6,0,,0,0.,4.8,0.,4.8,,0,0.,4.8,50.,4.8
1979-03-02 00:28:29.360 ,6,0,,0,0.,4.8,0.,4.8,,0,0.,4.8,46.,4.8
1979-03-02 00:28:34.160 ,6,0,,0,0.,4.8,0.,4.8,,0,0.,4.8,70.,4.8
1979-03-02 00:28:38.960 ,5,0,,0,0.,4.8,0.,4.8,,0,0.,4.8,49.,4.8
1979-03-02 00:28:43.760 ,5,0,,0,0.,4.8,0.,4.8,,0,0.,4.8,50.,4.8
1979-03-02 00:28:48.560 ,5,0,,0,0.,4.8,0.,4.8,,0,0.,4.8,42.,4.8
1979-03-02 00:28:53.360 ,5,0,,0,0.,4.8,0.,4.8,,0,0.,4.8,52.,4.8
1979-03-02 00:28:58.160 ,5,0,,0,0.,4.8,0.,4.8,,0,0.,4.8,46.,4.8
1979-03-02 00:29:02.960 ,4,0,,0,1.,4.8,0.,4.8,,0,0.,4.8,35.,4.8
1979-03-02 00:29:07.760 ,4,0,,0,0.,4.8,0.,4.8,,0,0.,4.8,64.,4.8
1979-03-02 00:29:12.560 ,4,0,,0,0.,4.8,0.,4.8,,0,0.,4.8,51.,4.8
1979-03-02 00:29:17.360 ,4,0,,0,0.,4.8,0.,4.8,,0,0.,4.8,35.,4.8
1979-03-02 00:29:22.160 ,4,0,,0,0.,4.8,0.,4.8,,0,0.,4.8,46.,4.8
1979-03-02 00:29:26.960 ,3,0,,0,0.,4.8,0.,4.8,,0,0.,4.8,50.,4.8
1979-03-02 00:29:31.760 ,3,0,,0,0.,4.8,1.,4.8,,0,0.,4.8,54.,4.8
1979-03-02 00:29:36.560 ,3,0,,0,0.,4.8,0.,4.8,,0,0.,4.8,23.,4.8
1979-03-02 00:29:41.360 ,3,0,,0,0.,4.8,3.,4.8,,0,0.,4.8,30.,4.8
1979-03-02 00:29:46.160 ,3,0,,0,0.,4.8,0.,4.8,,0,0.,4.8,31.,4.8
1979-03-02 00:29:50.960 ,2,0,,0,0.,4.8,0.,4.8,,0,0.,4.8,34.,4.8
1979-03-02 00:29:55.760 ,2,0,,0,0.,4.8,0.,4.8,,0,0.,4.8,22.,4.8
1979-03-02 00:30:00.560 ,2,0,,0,0.,4.8,0.,4.8,,0,0.,4.8,22.,4.8
1979-03-02 00:30:05.360 ,2,0,,0,0.,4.8,0.,4.8,,0,0.,4.8,25.,4.8
1979-03-02 00:30:10.160 ,2,0,,0,0.,4.8,0.,4.8,,0,0.,4.8,17.,4.8
1979-03-02 00:30:14.960 ,1,0,,0,0.,4.8,0.,4.8,,0,0.,4.8,25.,4.8
1979-03-02 00:30:19.760 ,1,0,,0,0.,4.8,0.,4.8,,0,0.,4.8,37.,4.8
1979-03-02 00:30:24.560 ,1,0,,0,0.,4.8,1.,4.8,,0,0.,4.8,21.,4.8
1979-03-02 00:30:29.360 ,1,0,,0,0.,4.8,0.,4.8,,0,0.,4.8,17.,4.8
1979-03-02 00:30:34.160 ,1,0,,0,0.,4.8,0.,4.8,,0,0.,4.8,12.,4.8
1979-03-02 00:30:38.960 ,0,0,,0,1.,4.8,0.,4.8,,0,0.,4.8,21.,4.8
1979-03-02 00:30:43.760 ,0,0,,0,0.,4.8,0.,4.8,,0,0.,4.8,24.,4.8
1979-03-02 00:30:48.560 ,0,0,,0,0.,4.8,0.,4.8,,0,0.,4.8,29.,4.8
1979-03-02 00:30:53.360 ,0,0,,0,0.,4.8,0.,4.8,,0,0.,4.8,30.,4.8
1979-03-02 00:30:58.160 ,0,0,,0,0.,4.8,0.,4.8,,0,0.,4.8,35.,4.8
1979-03-02 00:31:02.960 ,0,0,,0,0.,4.8,0.,4.8,,0,0.,4.8,26.,4.8
1979-03-02 00:31:07.760 ,0,0,,0,0.,4.8,0.,4.8,,0,0.,4.8,33.,4.8
1979-03-02 00:31:12.560 ,0,0,,0,0.,4.8,0.,4.8,,0,0.,4.8,36.,4.8
1979-03-02 00:31:17.360 ,0,0,,0,0.,4.8,1.,4.8,,0,0.,4.8,29.,4.8
1979-03-02 00:31:22.160 ,0,0,,0,0.,4.8,0.,4.8,,0,0.,4.8,31.,4.8
1979-03-02 00:31:26.960 ,1,0,,0,0.,4.8,0.,4.8,,0,0.,4.8,19.,4.8
1979-03-02 00:31:31.760 ,1,0,,0,0.,4.8,2.,4.8,,0,0.,4.8,17.,4.8
1979-03-02 00:31:36.560 ,1,0,,0,0.,4.8,0.,4.8,,0,0.,4.8,19.,4.8
1979-03-02 00:31:41.360 ,1,0,,0,0.,4.8,0.,4.8,,0,0.,4.8,19.,4.8
1979-03-02 00:31:46.160 ,1,0,,0,0.,4.8,0.,4.8,,0,0.,4.8,13.,4.8
1979-03-02 00:31:50.960 ,2,0,,0,0.,4.8,0.,4.8,,0,0.,4.8,23.,4.8
1979-03-02 00:31:55.760 ,2,0,,0,0.,4.8,0.,4.8,,0,0.,4.8,30.,4.8
1979-03-02 00:32:00.560 ,2,0,,0,0.,4.8,0.,4.8,,0,0.,4.8,31.,4.8
1979-03-02 00:32:05.360 ,2,0,,0,0.,4.8,0.,4.8,,0,0.,4.8,24.,4.8
1979-03-02 00:32:10.160 ,2,0,,0,0.,4.8,0.,4.8,,0,0.,4.8,19.,4.8
1979-03-02 00:32:14.960 ,3,0,,0,0.,4.8,0.,4.8,,0,0.,4.8,20.,4.8